Regional Weather Roundup
Issued by NWS

Home | Current Version | Previous Version | Graphics & Text | Print | Product List | Glossary On
Versions: 1 2 3 4 5 6 7 8 9 10 11 12 13 14 15 16 17 18 19 20 21 22 23 24 25 26 27 28 29 30 31 32 33 34 35 36 37 38 39 40 41 42 43
000
ASUS43 KDMX 252207
RWRIA

WEATHER ROUNDUP FOR IOWA
NATIONAL WEATHER SERVICE DES MOINES IA
400 PM CST THU DEC 25 2014

NOTE: "FAIR" INDICATES FEW OR NO CLOUDS BELOW 12,000 FEET WITH NO
SIGNIFICANT WEATHER AND/OR OBSTRUCTIONS TO VISIBILITY.

* - THESE STATIONS ARE NOT NWS STATIONS...THUS NOT UNDER NWS
QUALITY CONTROL.  THEY ALSO DO NOT REPORT WEATHER SUCH
AS PRECIPITATION OR FOG.

IAZ001>003-012>014-020>022-031>034-043>046-252300-
   NORTHWEST IOWA

CITY           SKY/WX    TMP DP  RH WIND       PRES   REMARKS
CARROLL *      CLEAR     45  37  76 SE9       29.66R
CHEROKEE *     CLEAR     37  34  87 E6        29.66R WCI  33
DENISON *      CLEAR     46  36  66 S7        29.63R
LE MARS *      CLEAR     37  32  81 E7        29.66R WCI  32
ORANGE CITY *  CLEAR     39  30  70 E7        29.66R WCI  34
SHELDON *      CLEAR     36  32  87 E13       29.66R WCI  27
SIOUX CITY     CLEAR     44  33  65 SE6       29.64R
SPENCER        MOCLDY    36  29  75 E9        29.68R WCI  29
STORM LAKE *   CLEAR     36  32  87 E8        29.66R WCI  29
$$

IAZ055>058-069>071-079>083-090>094-252300-
   SOUTHWEST IOWA

CITY           SKY/WX    TMP DP  RH WIND       PRES   REMARKS
ATLANTIC *     CLEAR     50  34  53 S10       29.64R
AUDUBON *      CLEAR     46  34  61 SE6       29.65R
CLARINDA *     CLEAR     52  32  46 S22G31    29.65S
COUNCIL BLFS * CLEAR     48  36  61 S12       29.61R
CRESTON *      CLEAR     46  32  57 S15G21    29.68R
HARLAN  *      CLEAR     48  37  66 S14       29.66R
LAMONI         CLEAR     48  31  51 S14G25    29.70R
RED OAK *      CLEAR     50  32  50 S16G32    29.64R
SHENANDOAH *   CLEAR     50  34  53 S16G24    29.63R
$$

IAZ047>049-059>061-072>074-084-252300-
   CENTRAL IOWA

CITY           SKY/WX    TMP DP  RH WIND       PRES   REMARKS
AMES           PTCLDY    46  33  60 SE10      29.70S
ANKENY *       CLEAR     48  32  53 SE10G16   29.70S
CHARITON *     PTCLDY    46  32  57 S15G22    29.71S
DES MOINES     MOCLDY    48  31  51 S12       29.71S
GRINNELL*      CLEAR     46  34  61 SE10      29.75F
KNOXVILLE *    CLEAR     48  28  46 S15G23    29.71F
MARSHALLTOWN   CLEAR     45  34  65 SE10      29.73S
PELLA *        CLEAR     48  32  53 S12       29.75F
PERRY *          N/A     45  36  70 SE8       29.68R
$$

IAZ004>006-015-016-023>025-035-036-252300-
   NORTH CENTRAL IOWA

CITY           SKY/WX    TMP DP  RH WIND       PRES   REMARKS
ALGONA *       CLEAR     36 N/A N/A E7        29.71R WCI  30
CLARION *      CLEAR     37  36  93 SE10      29.71S WCI  30
ESTHERVILLE    CLOUDY    34  30  85 SE8       29.70R WCI  27
FORT DODGE *   MOCLDY    41  30  65 SE6       29.70S
MASON CITY     CLOUDY    36  32  85 E3        29.75S
FOREST CITY *  CLEAR     36  30  80 E6        29.72F WCI  31
IOWA FALLS *     N/A     43  36  75 SE8       29.73F
$$

IAZ007>011-017>019-026>030-037>042-050>054-066-252300-
   NORTHEAST IOWA

CITY           SKY/WX    TMP DP  RH WIND       PRES   REMARKS
CEDAR RAPIDS   PTCLDY    46  32  58 S12       29.80S
CHARLES CITY * CLEAR     39  34  81 S6        29.76S WCI  35
CLINTON *      PTCLDY    45  32  61 S10       29.90S
DECORAH *      CLEAR     39  32  75 S8        29.78S WCI  34
DUBUQUE        PTCLDY    43  31  62 S14       29.84R
MONTICELLO *   CLEAR     46  34  61 S13       29.83S
OELWEIN *      PTCLDY    43  34  70 S13       29.78F
WATERLOO       MOCLDY    45  33  63 S12       29.76S
$$

IAZ064-065-067-068-078-252300-
   EAST CENTRAL IOWA

CITY           SKY/WX    TMP DP  RH WIND       PRES   REMARKS
DAVENPORT      CLEAR     45  30  55 S13       29.88R
IOWA CITY      PTCLDY    46  32  58 S14       29.84S
MT. PLEASANT * PTCLDY    46  32  57 SE16      29.85S
MUSCATINE *    CLEAR     46  34  61 SE8       29.86S
QUAD CITIES    CLEAR     46  32  58 S12       29.88R
$$

IAZ062-063-075>077-085>089-095>099-252300-
   SOUTHEAST IOWA

CITY           SKY/WX    TMP DP  RH WIND       PRES   REMARKS
BURLINGTON     CLEAR     47  33  58 S14       29.87S
FAIRFIELD *    CLEAR     48  30  49 S16       29.81R
FORT MADISON *   N/A     48  36  61 S10G18    29.87S
KEOKUK *       CLEAR     48  32  53 S10G18    29.86S
OSKALOOSA *      N/A     46  34  61 SE14      29.78S
CENTERVILLE *  CLEAR     48  30  49 S16G22    29.76F
OTTUMWA        CLEAR     48  30  49 S18G25    29.77F
WASHINGTON *   CLEAR     46  36  66 S15G21    29.82S
$$

ABBREVIATIONS USED IN REMARKS
   TC - TEMPERATURES IN CELSIUS
  WCI - WIND CHILL INDEX
   HX - HEAT INDEX
  VSB - VISIBILITY
$$




USA.gov is the U.S. government's official web portal to all federal, state and local government web resources and services.